When you browse on this site, cookies collect data to enhance your experience and personalize the content and advertising you see.
Visit our Privacy Policy to learn more. By continuing to use the site, you agree to this use of cookies and data.

Meteo pe oră la Dziekanowice

Astăzi, 25 Septembrie, Vineri

Timp Temperatura Precipitaţii Vânt Presiune Umiditate
00:00 +16°C° 0 mm 1 m/s 732 mmHg 82%
01:00 +16°C° 0 mm 2 m/s 732 mmHg 85%
02:00 +15°C° 0 mm 2 m/s 732 mmHg 86%
03:00 +15°C° 0 mm 2 m/s 731 mmHg 87%
04:00 +14°C° 0 mm 2 m/s 731 mmHg 88%
05:00 +15°C° 0 mm 2 m/s 730 mmHg 86%
06:00 +15°C° 0 mm 2 m/s 729 mmHg 84%
07:00 +16°C° 0 mm 2 m/s 729 mmHg 83%
08:00 +18°C° 0 mm 2 m/s 728 mmHg 75%
09:00 +20°C° 0 mm 3 m/s 728 mmHg 67%
10:00 +22°C° 0 mm 4 m/s 728 mmHg 59%
11:00 +23°C° 0 mm 5 m/s 727 mmHg 56%
12:00 +24°C° 0 mm 6 m/s 727 mmHg 53%
13:00 +24°C° 0 mm 6 m/s 727 mmHg 50%
14:00 +23°C° 0.1 mm 6 m/s 726 mmHg 56%
15:00 +21°C° 0.1 mm 5 m/s 726 mmHg 61%
16:00 +20°C° 0.1 mm 4 m/s 725 mmHg 67%
17:00 +19°C° 0.1 mm 3 m/s 725 mmHg 70%
18:00 +18°C° 0.1 mm 2 m/s 725 mmHg 74%
19:00 +18°C° 0.1 mm 2 m/s 725 mmHg 78%
20:00 +18°C° 0 mm 1 m/s 725 mmHg 80%
21:00 +18°C° 0 mm 1 m/s 725 mmHg 82%
22:00 +18°C° 0 mm 1 m/s 725 mmHg 84%
23:00 +16°C° 0.1 mm 1 m/s 724 mmHg 85%

Mâine, 26 Septembrie, Sâmbătă

Timp Temperatura Precipitaţii Vânt Presiune Umiditate
00:00 +16°C° 0.1 mm 2 m/s 723 mmHg 87%
01:00 +16°C° 0.1 mm 2 m/s 723 mmHg 89%
02:00 +16°C° 0 mm 3 m/s 722 mmHg 89%
03:00 +16°C° 0 mm 3 m/s 721 mmHg 89%
04:00 +15°C° 0 mm 4 m/s 721 mmHg 89%
05:00 +16°C° 0.1 mm 5 m/s 720 mmHg 86%
06:00 +16°C° 0.1 mm 5 m/s 720 mmHg 84%
07:00 +16°C° 0.1 mm 5 m/s 720 mmHg 82%
08:00 +16°C° 0.7 mm 5 m/s 720 mmHg 83%
09:00 +18°C° 0.7 mm 4 m/s 721 mmHg 83%
10:00 +18°C° 0.7 mm 4 m/s 721 mmHg 83%
11:00 +18°C° 0.7 mm 3 m/s 722 mmHg 79%
12:00 +18°C° 0.7 mm 2 m/s 722 mmHg 75%
13:00 +19°C° 0.7 mm 2 m/s 723 mmHg 71%
14:00 +17°C° 0.8 mm 2 m/s 723 mmHg 75%
15:00 +16°C° 0.8 mm 3 m/s 723 mmHg 80%
16:00 +14°C° 0.8 mm 3 m/s 724 mmHg 84%
17:00 +13°C° 0.2 mm 3 m/s 724 mmHg 83%
18:00 +12°C° 0.2 mm 3 m/s 724 mmHg 81%
19:00 +12°C° 0.2 mm 4 m/s 725 mmHg 79%
20:00 +11°C° 0 mm 4 m/s 725 mmHg 79%
21:00 +10°C° 0 mm 4 m/s 725 mmHg 78%
22:00 +8°C° 0 mm 4 m/s 726 mmHg 77%
23:00 +8°C° 0 mm 4 m/s 726 mmHg 78%

Poimâine, 27 Septembrie, Duminică

Timp Temperatura Precipitaţii Vânt Presiune Umiditate
00:00 +7°C° 0 mm 4 m/s 726 mmHg 78%
01:00 +7°C° 0 mm 4 m/s 726 mmHg 79%
02:00 +8°C° 0 mm 3 m/s 726 mmHg 79%
03:00 +8°C° 0 mm 3 m/s 727 mmHg 79%
04:00 +8°C° 0 mm 3 m/s 727 mmHg 79%
05:00 +8°C° 0 mm 3 m/s 727 mmHg 78%
06:00 +8°C° 0 mm 3 m/s 727 mmHg 77%
07:00 +7°C° 0 mm 4 m/s 727 mmHg 75%
08:00 +8°C° 0.3 mm 4 m/s 727 mmHg 75%
09:00 +8°C° 0.3 mm 5 m/s 727 mmHg 75%
10:00 +8°C° 0.3 mm 5 m/s 728 mmHg 75%
11:00 +9°C° 0.1 mm 6 m/s 728 mmHg 72%
12:00 +10°C° 0.1 mm 6 m/s 728 mmHg 70%
13:00 +10°C° 0.1 mm 6 m/s 728 mmHg 67%
14:00 +10°C° 0.1 mm 5 m/s 728 mmHg 67%
15:00 +12°C° 0.1 mm 5 m/s 729 mmHg 67%
16:00 +12°C° 0.1 mm 4 m/s 729 mmHg 67%
17:00 +11°C° 0.1 mm 4 m/s 730 mmHg 67%
18:00 +11°C° 0.1 mm 4 m/s 730 mmHg 68%
19:00 +11°C° 0.1 mm 4 m/s 731 mmHg 69%
20:00 +11°C° 0 mm 4 m/s 731 mmHg 69%
21:00 +10°C° 0 mm 4 m/s 732 mmHg 69%
22:00 +10°C° 0 mm 4 m/s 732 mmHg 69%
23:00 +10°C° 0 mm 4 m/s 732 mmHg 70%

28 Septembrie, Luni

Timp Temperatura Precipitaţii Vânt Presiune Umiditate
00:00 +9°C° 0 mm 3 m/s 733 mmHg 71%
01:00 +9°C° 0 mm 2 m/s 733 mmHg 72%
02:00 +8°C° 0 mm 2 m/s 733 mmHg 74%
03:00 +7°C° 0 mm 2 m/s 733 mmHg 76%
04:00 +7°C° 0 mm 2 m/s 733 mmHg 78%
05:00 +7°C° 0 mm 2 m/s 733 mmHg 75%
06:00 +8°C° 0 mm 2 m/s 733 mmHg 72%
07:00 +9°C° 0 mm 2 m/s 733 mmHg 70%
08:00 +10°C° 0.1 mm 2 m/s 733 mmHg 68%
09:00 +11°C° 0.1 mm 3 m/s 734 mmHg 66%
10:00 +12°C° 0.1 mm 4 m/s 734 mmHg 63%
11:00 +12°C° 0 mm 3 m/s 734 mmHg 64%
12:00 +14°C° 0 mm 2 m/s 734 mmHg 64%
13:00 +14°C° 0 mm 2 m/s 734 mmHg 64%
14:00 +14°C° 0 mm 2 m/s 734 mmHg 65%
15:00 +14°C° 0 mm 2 m/s 734 mmHg 65%
16:00 +14°C° 0 mm 2 m/s 733 mmHg 66%
17:00 +14°C° 0 mm 1 m/s 734 mmHg 70%
18:00 +13°C° 0 mm 1 m/s 734 mmHg 75%
19:00 +12°C° 0 mm 1 m/s 734 mmHg 80%
20:00 +11°C° 0 mm 1 m/s 734 mmHg 82%
21:00 +10°C° 0 mm 2 m/s 734 mmHg 84%
22:00 +10°C° 0 mm 2 m/s 734 mmHg 86%
23:00 +9°C° 0 mm 2 m/s 734 mmHg 87%

29 Septembrie, Marţi

Timp Temperatura Precipitaţii Vânt Presiune Umiditate
00:00 +9°C° 0 mm 2 m/s 734 mmHg 89%
01:00 +10°C° 0 mm 1 m/s 734 mmHg 90%
02:00 +10°C° 0 mm 1 m/s 734 mmHg 89%
03:00 +9°C° 0 mm 1 m/s 734 mmHg 89%
04:00 +9°C° 0 mm 1 m/s 734 mmHg 88%
05:00 +10°C° 0 mm 1 m/s 734 mmHg 86%
06:00 +10°C° 0 mm 1 m/s 734 mmHg 84%
07:00 +11°C° 0 mm 1 m/s 734 mmHg 83%
08:00 +12°C° 0 mm 1 m/s 734 mmHg 75%
09:00 +14°C° 0 mm 2 m/s 734 mmHg 68%
10:00 +15°C° 0 mm 2 m/s 734 mmHg 61%
11:00 +15°C° 0.1 mm 2 m/s 734 mmHg 66%
12:00 +13°C° 0.1 mm 3 m/s 734 mmHg 71%
13:00 +12°C° 0.1 mm 3 m/s 734 mmHg 75%
14:00 +12°C° 0.3 mm 3 m/s 734 mmHg 79%
15:00 +12°C° 0.3 mm 3 m/s 734 mmHg 83%
16:00 +12°C° 0.3 mm 2 m/s 734 mmHg 87%
17:00 +12°C° 0.2 mm 2 m/s 734 mmHg 88%
18:00 +12°C° 0.2 mm 2 m/s 734 mmHg 90%
19:00 +12°C° 0.2 mm 2 m/s 734 mmHg 92%
20:00 +12°C° 0.2 mm 2 m/s 734 mmHg 92%
21:00 +10°C° 0.2 mm 2 m/s 735 mmHg 92%
22:00 +10°C° 0.2 mm 3 m/s 735 mmHg 92%
23:00 +10°C° 0.2 mm 3 m/s 735 mmHg 93%

30 Septembrie, Miercuri

Timp Temperatura Precipitaţii Vânt Presiune Umiditate
00:00 +10°C° 0.2 mm 3 m/s 735 mmHg 94%
01:00 +10°C° 0.2 mm 3 m/s 735 mmHg 95%
02:00 +10°C° 0.1 mm 3 m/s 735 mmHg 95%
03:00 +10°C° 0.1 mm 3 m/s 735 mmHg 95%
04:00 +10°C° 0.1 mm 3 m/s 735 mmHg 95%
05:00 +10°C° 0.2 mm 3 m/s 735 mmHg 94%
06:00 +10°C° 0.2 mm 4 m/s 735 mmHg 93%
07:00 +10°C° 0.2 mm 4 m/s 735 mmHg 92%
08:00 +10°C° 0 mm 5 m/s 735 mmHg 87%
09:00 +12°C° 0 mm 5 m/s 735 mmHg 82%
10:00 +13°C° 0 mm 6 m/s 735 mmHg 78%
11:00 +13°C° 0 mm 6 m/s 734 mmHg 75%
12:00 +12°C° 0 mm 7 m/s 734 mmHg 73%
13:00 +14°C° 0 mm 7 m/s 734 mmHg 71%
14:00 +14°C° 0.1 mm 7 m/s 733 mmHg 72%
15:00 +12°C° 0.1 mm 7 m/s 733 mmHg 74%
16:00 +13°C° 0.1 mm 6 m/s 733 mmHg 76%
17:00 +13°C° 0.3 mm 6 m/s 733 mmHg 79%
18:00 +13°C° 0.3 mm 6 m/s 733 mmHg 82%
19:00 +12°C° 0.3 mm 5 m/s 733 mmHg 85%
20:00 +11°C° 0.5 mm 6 m/s 733 mmHg 86%
21:00 +13°C° 0.5 mm 6 m/s 733 mmHg 88%
22:00 +13°C° 0.5 mm 6 m/s 733 mmHg 89%
23:00 +13°C° 1 mm 6 m/s 732 mmHg 90%
Arată mai mult